TIAA Bank Field FL US WEATHERSTEM current weather conditions

sailwx.info

Wind from 290 at 2 knots gusting 4

Air temperature 22.7° C
Dewpoint 14.1° C

Last reported at 2020-Oct-01 15:00 UTC.
Time now 2020-Oct-01 15:55 UTC

Location: N 30°19' W 081°38'.
View on Google Maps.

See reports from other nearby stations

  
Tides and Currents Weather Stations Pressure Air Temp Water Temp Dewpoint Dewpoint Depression Visibility Wind Speed Wind Dir Waves Ship Positions
date/time (UTC)wind fromknots sea level pressurealtimeterstation pressurevisibilityair tempwater tempwave heightnotes
2020-Oct-01 15:00 290 2 gusting 4 22.7
2020-Oct-01 14:50 22.6
2020-Oct-01 14:40 348 1 gusting 5 22.2
2020-Oct-01 14:30 355 4 gusting 6 22.2
2020-Oct-01 14:20 335 2 gusting 5 21.8
2020-Oct-01 14:10 325 1 gusting 4 21.2
2020-Oct-01 14:00 332 1 gusting 2 20.8
2020-Oct-01 13:50 332 0 gusting 3 20.9
2020-Oct-01 13:40 20.6
2020-Oct-01 13:20 326 1 gusting 2 19.3
2020-Oct-01 13:10 18.8
2020-Oct-01 13:00 329 0 gusting 3 18.3
2020-Oct-01 12:50 327 3 gusting 4 18.3
2020-Oct-01 12:40 316 0 gusting 2 18.4
2020-Oct-01 12:30 316 1 gusting 3 18.1
2020-Oct-01 12:20 316 1 gusting 3 17.5
2020-Oct-01 12:10 316 2 gusting 3 17.1
2020-Oct-01 12:00 316 3 gusting 5 16.9
2020-Oct-01 11:50 315 4 gusting 5 17.0
2020-Oct-01 11:40 329 0 gusting 4 17.1
2020-Oct-01 11:30 317 2 gusting 4 17.2
2020-Oct-01 11:20 302 2 gusting 6 16.9
2020-Oct-01 11:10 305 2 gusting 6 16.8
2020-Oct-01 11:00 319 3 gusting 5 16.9
2020-Oct-01 10:50 331 3 gusting 4 16.8
2020-Oct-01 10:40 323 4 gusting 5 16.7
2020-Oct-01 10:30 329 3 gusting 5 16.7
2020-Oct-01 10:20 317 4 gusting 5 17.2
2020-Oct-01 10:10 317 5 gusting 5 17.7
2020-Oct-01 10:00 318 3 gusting 5 17.5
2020-Oct-01 09:50 322 4 gusting 4 17.5
2020-Oct-01 09:40 320 4 gusting 6 17.9
2020-Oct-01 09:30 319 5 gusting 5 17.9
2020-Oct-01 09:20 322 4 gusting 5 18.3
2020-Oct-01 09:10 320 3 gusting 4 18.6
2020-Oct-01 09:00 323 2 gusting 3 18.8
2020-Oct-01 08:50 324 3 gusting 4 18.8
2020-Oct-01 08:40 313 2 gusting 3 18.8
2020-Oct-01 08:30 313 1 gusting 2 19.1
2020-Oct-01 08:20 313 0 gusting 2 19.2
2020-Oct-01 08:10 313 0 gusting 1 19.4
2020-Oct-01 07:50 313 0 gusting 3 19.2
2020-Oct-01 07:40 313 1 gusting 3 18.7
2020-Oct-01 07:20 314 2 gusting 3 19.1
2020-Oct-01 07:10 314 1 gusting 2 19.3
2020-Oct-01 07:00 314 0 gusting 1 19.4
2020-Oct-01 06:50 314 0 gusting 2 19.4
2020-Oct-01 06:40 314 2 gusting 2 19.2
2020-Oct-01 06:30 314 2 gusting 2 19.1
2020-Oct-01 06:20 314 2 gusting 4 18.9
2020-Oct-01 06:10 315 3 gusting 5 19.3
2020-Oct-01 06:00 315 1 gusting 5 19.3
2020-Oct-01 05:50 326 2 gusting 3 19.5
2020-Oct-01 05:40 320 3 gusting 3 19.5
2020-Oct-01 05:30 316 1 gusting 3 19.7
2020-Oct-01 05:20 317 1 gusting 3 19.6
2020-Oct-01 05:10 317 1 gusting 3 19.8
2020-Oct-01 05:00 321 2 gusting 4 19.9
2020-Oct-01 04:50 319 3 gusting 3 20.1
2020-Oct-01 04:40 319 2 gusting 4 20.2
2020-Oct-01 04:30 348 2 gusting 3 20.1
2020-Oct-01 04:20 065 1 gusting 2 20.8
2020-Oct-01 04:10 21.3
2020-Oct-01 04:00 103 0 gusting 0 21.4
2020-Oct-01 03:50 21.4
2020-Oct-01 03:40 103 0 gusting 0 21.2
2020-Oct-01 03:30 21.2
2020-Oct-01 03:20 21.0
2020-Oct-01 03:10 103 0 gusting 0 20.9
2020-Oct-01 03:00 20.9
2020-Oct-01 02:50 20.9
2020-Oct-01 02:40 20.8
2020-Oct-01 02:30 103 0 gusting 2 20.9
2020-Oct-01 02:20 103 0 gusting 2 20.9
2020-Oct-01 02:10 103 0 gusting 2 21.0
2020-Oct-01 02:00 103 1 gusting 1 21.2
2020-Oct-01 01:50 21.4
2020-Oct-01 01:40 21.5
2020-Oct-01 01:30 21.6
2020-Oct-01 01:20 100 2 gusting 3 21.6
2020-Oct-01 01:10 123 3 gusting 5 21.6
2020-Oct-01 01:00 102 3 gusting 6 21.7
2020-Oct-01 00:50 153 3 gusting 4 21.7
2020-Oct-01 00:40 083 1 gusting 6 21.7
2020-Oct-01 00:30 097 2 gusting 5 21.8
2020-Oct-01 00:20 144 1 gusting 6 21.9
2020-Oct-01 00:10 128 3 gusting 7 22.1
2020-Oct-01 00:00 119 2 gusting 7 22.3
2020-Sep-30 23:50 101 6 gusting 6 22.4
2020-Sep-30 23:40 119 2 gusting 3 23.1
2020-Sep-30 23:30 109 2 gusting 5 23.0
2020-Sep-30 23:20 091 0 gusting 3 23.4
2020-Sep-30 23:10 041 3 gusting 4 23.8
2020-Sep-30 23:00 355 1 gusting 6 24.1
2020-Sep-30 22:50 330 2 gusting 5 24.3
2020-Sep-30 22:40 005 1 gusting 6 24.3
2020-Sep-30 22:30 352 4 gusting 6 24.7
2020-Sep-30 22:20 024 2 gusting 5 24.7
2020-Sep-30 22:10 285 0 gusting 8 24.9
2020-Sep-30 22:00 005 2 gusting 6 24.7
2020-Sep-30 21:50 328 3 gusting 6 24.8
2020-Sep-30 21:40 331 2 gusting 10 24.8
2020-Sep-30 21:30 327 2 gusting 6 24.4
2020-Sep-30 21:20 262 0 gusting 8 24.9
2020-Sep-30 21:10 063 2 gusting 8 25.1
2020-Sep-30 21:00 350 5 gusting 10 24.8
2020-Sep-30 20:50 306 3 gusting 8 24.9
2020-Sep-30 20:40 341 3 gusting 6 25.3
2020-Sep-30 20:30 014 1 gusting 10 24.4
2020-Sep-30 20:20 005 5 gusting 11 24.6
2020-Sep-30 20:10 005 9 gusting 9 24.6
2020-Sep-30 20:00 317 4 gusting 11 24.2
2020-Sep-30 19:50 061 1 gusting 4 24.9
2020-Sep-30 19:40 321 1 gusting 9 24.5
2020-Sep-30 19:30 328 2 gusting 6 24.7
2020-Sep-30 19:20 250 4 gusting 8 23.7
2020-Sep-30 19:10 273 6 gusting 7 23.9
2020-Sep-30 19:00 298 0 gusting 8 23.8
2020-Sep-30 18:50 024 3 gusting 9 24.4
2020-Sep-30 18:40 033 8 gusting 9 24.2
2020-Sep-30 18:30 306 3 gusting 6 23.9
2020-Sep-30 18:20 23.7
2020-Sep-30 18:10 024 3 gusting 7 23.8
2020-Sep-30 18:00 054 2 gusting 8 23.6
2020-Sep-30 17:50 040 0 gusting 7 23.6
2020-Sep-30 17:40 265 0 gusting 8 22.8
2020-Sep-30 17:30 323 4 gusting 10 22.7
2020-Sep-30 17:20 086 2 gusting 7 22.8
2020-Sep-30 17:10 346 5 gusting 10 21.8
2020-Sep-30 17:00 344 8 gusting 9 22.2
2020-Sep-30 16:50 350 2 gusting 8 22.4
2020-Sep-30 16:40 341 6 gusting 9 21.8
2020-Sep-30 16:30 341 3 gusting 10 21.8
2020-Sep-30 16:20 005 2 gusting 9 21.8
2020-Sep-30 16:10 360 7 gusting 8 22.0
2020-Sep-30 16:00 323 6 gusting 10 20.7
2020-Sep-30 15:50 340 8 gusting 13 20.8
2020-Sep-30 15:40 076 3 gusting 11 20.9
2020-Sep-30 15:30 340 3 gusting 13 20.3
2020-Sep-30 15:20 344 5 gusting 15 20.2
2020-Sep-30 15:10 347 8 gusting 14 19.7
2020-Sep-30 15:00 342 8 gusting 14 19.7
2020-Sep-30 14:50 346 13 gusting 16 18.9
2020-Sep-30 14:40 025 1 gusting 15 19.1
2020-Sep-30 14:30 355 6 gusting 15 18.8
2020-Sep-30 14:20 355 13 gusting 19 18.4
2020-Sep-30 14:10 360 18 gusting 14 18.6
2020-Sep-30 14:00 347 11 gusting 20 18.2
2020-Sep-30 13:50 346 9 gusting 14 17.7
2020-Sep-30 13:40 329 8 gusting 14 17.4
2020-Sep-30 13:30 355 10 gusting 14 16.8
2020-Sep-30 13:20 009 8 gusting 13 16.3
2020-Sep-30 13:10 323 7 gusting 13 16.2
2020-Sep-30 12:50 322 7 gusting 14 16.3
2020-Sep-30 12:40 285 5 gusting 14 16.2
2020-Sep-30 12:30 360 11 gusting 16 16.1
2020-Sep-30 12:20 323 7 gusting 12 16.0
2020-Sep-30 12:10 338 8 gusting 12 16.0
2020-Sep-30 12:00 327 3 gusting 10 15.7
2020-Sep-30 11:50 315 4 gusting 9 15.7
2020-Sep-30 11:40 325 6 gusting 9 15.6
2020-Sep-30 11:30 332 7 gusting 9 15.6
2020-Sep-30 11:20 326 3 gusting 8 15.7
2020-Sep-30 11:10 319 7 gusting 8 15.7
2020-Sep-30 11:00 325 3 gusting 9 15.7
2020-Sep-30 10:50 317 5 gusting 9 15.8
2020-Sep-30 10:40 329 3 gusting 10 15.9
2020-Sep-30 10:30 335 2 gusting 8 15.8
2020-Sep-30 10:20 327 3 gusting 10 15.8
2020-Sep-30 10:10 330 6 gusting 9 15.8
2020-Sep-30 10:00 321 4 gusting 8 15.8
2020-Sep-30 09:50 342 7 gusting 10 15.8
2020-Sep-30 09:40 327 7 gusting 9 15.9
2020-Sep-30 09:30 313 6 gusting 8 15.9
2020-Sep-30 09:20 315 5 gusting 9 16.0
2020-Sep-30 09:10 293 1 gusting 10 16.1
2020-Sep-30 09:00 310 4 gusting 12 16.1
2020-Sep-30 08:50 324 6 gusting 13 16.2
2020-Sep-30 08:40 309 9 gusting 13 16.2
2020-Sep-30 08:30 340 6 gusting 10 16.1
2020-Sep-30 08:20 333 6 gusting 10 16.1
2020-Sep-30 08:10 282 5 gusting 10 16.2
2020-Sep-30 07:50 313 3 gusting 9 16.2
2020-Sep-30 07:40 326 6 gusting 11 16.3
2020-Sep-30 07:30 283 9 gusting 13 16.2
2020-Sep-30 07:20 331 7 gusting 13 16.2
2020-Sep-30 07:10 299 2 gusting 11 16.4
2020-Sep-30 07:00 343 6 gusting 11 16.5
2020-Sep-30 06:50 340 5 gusting 10 16.4
2020-Sep-30 06:40 338 8 gusting 11 16.6
2020-Sep-30 06:30 321 8 gusting 11 16.7
2020-Sep-30 06:20 327 8 gusting 11 16.8
2020-Sep-30 06:10 321 7 gusting 7 16.9
2020-Sep-30 06:00 338 3 gusting 6 16.8
2020-Sep-30 05:50 342 4 gusting 8 16.9
2020-Sep-30 05:40 316 6 gusting 9 16.9
2020-Sep-30 05:30 290 3 gusting 8 16.8
2020-Sep-30 05:20 335 3 gusting 9 16.8
2020-Sep-30 05:10 325 5 gusting 11 16.7
2020-Sep-30 05:00 319 6 gusting 11 16.8
2020-Sep-30 04:50 327 2 gusting 9 17.0
2020-Sep-30 04:40 312 3 gusting 13 16.8
2020-Sep-30 04:30 347 4 gusting 13 16.9
2020-Sep-30 04:20 324 7 gusting 12 16.9
2020-Sep-30 04:10 317 3 gusting 12 17.0
2020-Sep-30 04:00 346 7 gusting 13 17.1
2020-Sep-30 03:50 329 12 gusting 17 17.0
2020-Sep-30 03:40 342 12 gusting 15 17.2
2020-Sep-30 03:30 317 7 gusting 16 17.2
2020-Sep-30 03:20 332 8 gusting 14 17.2
2020-Sep-30 03:10 329 9 gusting 13 17.3
2020-Sep-30 03:00 319 4 gusting 11 17.4
2020-Sep-30 02:50 294 2 gusting 10 17.4
2020-Sep-30 02:40 330 1 gusting 9 17.4
2020-Sep-30 02:30 323 4 gusting 8 17.3
2020-Sep-30 02:20 352 5 gusting 10 17.3
2020-Sep-30 02:10 330 6 gusting 11 17.3
2020-Sep-30 02:00 346 7 gusting 10 17.3
2020-Sep-30 01:50 350 7 gusting 9 17.6
2020-Sep-30 01:40 321 6 gusting 10 17.7
2020-Sep-30 01:30 338 3 gusting 10 17.4
2020-Sep-30 01:20 306 6 gusting 10 17.7
2020-Sep-30 01:10 328 7 gusting 9 17.6
2020-Sep-30 01:00 319 9 gusting 12 17.4
2020-Sep-30 00:50 328 9 gusting 13 17.3
2020-Sep-30 00:40 331 13 gusting 12 17.3
2020-Sep-30 00:30 333 7 gusting 10 17.4
2020-Sep-30 00:20 344 6 gusting 12 17.4
2020-Sep-30 00:10 342 9 gusting 13 17.3
2020-Sep-30 00:00 333 5 gusting 13 17.5
2020-Sep-29 23:50 360 11 gusting 15 17.4
2020-Sep-29 23:40 307 7 gusting 19 17.5
2020-Sep-29 23:30 342 12 gusting 20 17.8
2020-Sep-29 23:20 344 12 gusting 19 18.0
2020-Sep-29 23:10 346 15 gusting 26 18.1
2020-Sep-29 23:00 331 16 gusting 23 18.3
2020-Sep-29 22:50 348 18 gusting 23 18.6
2020-Sep-29 22:40 355 18 gusting 21 18.8
2020-Sep-29 22:30 340 11 gusting 26 19.1
2020-Sep-29 22:20 346 16 gusting 25 19.3
2020-Sep-29 22:10 336 14 gusting 49 21.4
2020-Sep-29 22:00 232 11 gusting 16 26.4
2020-Sep-29 21:50 241 13 gusting 19 26.5
2020-Sep-29 21:40 277 9 gusting 19 26.9
2020-Sep-29 21:30 349 5 gusting 17 27.3
2020-Sep-29 21:20 298 4 gusting 18 27.6
2020-Sep-29 21:10 254 14 gusting 20 27.6
2020-Sep-29 21:00 238 13 gusting 21 27.7
2020-Sep-29 20:40 229 19 gusting 23 27.8
2020-Sep-29 20:30 261 15 gusting 22 27.9
2020-Sep-29 20:10 247 19 gusting 22 28.0
2020-Sep-29 20:00 236 11 gusting 19 27.8
2020-Sep-29 19:50 244 13 gusting 21 27.8
2020-Sep-29 19:30 244 13 gusting 16 27.3
2020-Sep-29 19:20 236 13 gusting 16 27.6
2020-Sep-29 19:10 238 11 gusting 18 28.3
2020-Sep-29 19:00 229 17 gusting 19 30.2
2020-Sep-29 18:50 212 19 gusting 22 30.1
2020-Sep-29 18:40 238 16 gusting 16 30.1
2020-Sep-29 18:20 217 7 gusting 18 29.5
2020-Sep-29 18:10 214 13 gusting 19 29.5
2020-Sep-29 18:00 229 15 gusting 18 29.3
2020-Sep-29 17:50 203 9 gusting 16 29.2
2020-Sep-29 17:40 209 7 gusting 13 29.0
2020-Sep-29 17:30 194 4 gusting 12 28.3
2020-Sep-29 17:20 218 5 gusting 15 28.0
2020-Sep-29 17:10 202 8 gusting 16 27.9
2020-Sep-29 17:00 212 10 gusting 13 27.7
2020-Sep-29 16:50 215 6 gusting 13 27.4
2020-Sep-29 16:40 194 7 gusting 13 27.3
2020-Sep-29 16:30 218 9 gusting 12 27.1
2020-Sep-29 16:20 191 8 gusting 13 27.1
2020-Sep-29 16:10 244 3 gusting 12 26.7
2020-Sep-29 16:00 213 5 gusting 9 26.7
2020-Sep-29 15:50 128 4 gusting 11 26.4
2020-Sep-29 15:40 222 6 gusting 8 26.3
2020-Sep-29 15:30 223 6 gusting 8 26.2
2020-Sep-29 15:20 173 5 gusting 7 26.1
2020-Sep-29 15:10 230 5 gusting 7 26.5
2020-Sep-29 15:00 143 2 gusting 11 26.4